User: anonymous   Login
Location: Hickory_CSC
(35.7330°N, 81.3330°W)
Time: 08:52:10
(UTC-05:00)
Language:

Cosmos 1356 Rocket - Orbit

View from above orbital plane
View from above orbital plane
View from above satellite
View from above satellite

Ground track
Ground track

The orbit data is extracted from the following two-line orbital elements,

1 13154U 82039B   15058.53192187  .00001551  00000-0  13043-3 0  9997
2 13154 081.1823 098.9025 0042238 145.1847 215.2149 14.97030751777890
Epoch (UTC): 27 February 2015 12:45:58
Eccentricity: 0.0042238
inclination: 81.1823°
perigee height: 547 km
apogee height: 605 km
right ascension of ascending node: 98.9025°
argument of perigee: 145.1847°
revolutions per day: 14.97030751
mean anomaly at epoch: 215.2149°
orbit number at epoch: 77789

The dashed part of the orbit path shows where the satellite is in the earth's shadow,  

DLR